This is the latest recevied weather packets stored in our database for station/object KD7CTY. If no packets are shown the sender has not sent any weather packets the latest 10 day(s).
| Time | Temp. | Humidity | Pressure | Rain* | Wind** | Luminosity | Snow |
|---|---|---|---|---|---|---|---|
| 1777885678 | 13.89° C | 67% | 1008.8 hPa | 0 mm | - | 0 W/m² | - |
| 1777885375 | 14.44° C | 65% | 1008.6 hPa | 0 mm | - | 0 W/m² | - |
| 1777885074 | 13.89° C | 67% | 1008.5 hPa | 0 mm | - | 0 W/m² | - |
| 1777884770 | 13.89° C | 67% | 1008.4 hPa | 0 mm | - | 0 W/m² | - |
| 1777884465 | 13.89° C | 67% | 1008.5 hPa | 0 mm | - | 0 W/m² | - |
| 1777884164 | 14.44° C | 64% | 1008.6 hPa | 0 mm | - | 0 W/m² | - |
| 1777883860 | 14.44° C | 64% | 1008.6 hPa | 0 mm | - | 0 W/m² | - |
| 1777883557 | 13.89° C | 68% | 1008.6 hPa | 0 mm | - | 0 W/m² | - |
| 1777883253 | 13.89° C | 70% | 1008.5 hPa | 0 mm | - | 0 W/m² | - |
| 1777882949 | 13.89° C | 71% | 1008.6 hPa | 0 mm | - | 0 W/m² | - |
| 1777882646 | 13.89° C | 70% | 1008.6 hPa | 0 mm | - | 0 W/m² | - |
| 1777882342 | 13.89° C | 69% | 1008.6 hPa | 0 mm | - | 0 W/m² | - |
| 1777882039 | 13.89° C | 70% | 1009.1 hPa | 0 mm | - | 0 W/m² | - |
| 1777881735 | 13.89° C | 71% | 1008.6 hPa | 0 mm | - | 0 W/m² | - |
| 1777881432 | 13.89° C | 71% | 1008.6 hPa | 0 mm | - | 0 W/m² | - |
| 1777881130 | 13.89° C | 70% | 1008.8 hPa | 0 mm | - | 0 W/m² | - |
| 1777880828 | 13.89° C | 72% | 1008.8 hPa | 0 mm | - | 0 W/m² | - |
| 1777880525 | 13.89° C | 69% | 1008.7 hPa | 0 mm | - | 0 W/m² | - |
| 1777880223 | 14.44° C | 68% | 1008.8 hPa | 0 mm | - | 0 W/m² | - |
| 1777879921 | 14.44° C | 67% | 1008.5 hPa | 0 mm | - | 0 W/m² | - |
| 1777879619 | 14.44° C | 66% | 1008.7 hPa | 0 mm | - | 0 W/m² | - |
| 1777879315 | 15° C | 63% | 1008.6 hPa | 0 mm | - | 0 W/m² | - |
| 1777879012 | 15° C | 64% | 1008.8 hPa | 0 mm | - | 0 W/m² | - |
| 1777878709 | 15° C | 63% | 1008.8 hPa | 0 mm | - | 0 W/m² | - |
| 1777878407 | 15.56° C | 62% | 1008.7 hPa | 0 mm | - | 0 W/m² | - |
* Rain latest hour (hover to see other rain measurements)
** Current wind speed in m/s (hover to see current wind gust speed)